sat.trackr.live / text

‹ back to catalog

STARLINK-34174

NORAD 64097 · 2025-110B

PAYLOAD ACTIVE UNKNOWN

§ Identity

Operator
Country
US
Launch date
2025-05-23
Launch site
AFWTR
Launch vehicle
Mass (kg)
RCS (m²)

Purposes: comms

External: N2YO · Heavens-Above · Gunter

§ Orbital elements

Epoch: 2026-09-20T11:36:10.220832Z

Period
93.85 min
Inclination
53.1589°
Eccentricity
0.0000624
Mean motion
15.34397972 rev/d
Perigee alt
462.3 km
Apogee alt
463.1 km
Semi-major
6,840.8 km
B*
6.1037e-4
RAAN
197.9026°
Arg perigee
81.2256°
Mean anomaly
278.8817°
Rev number
7,576

§ Raw data

STARLINK-341741 64097U 25110B   26263.48345163  .00020301  00000+0  61037-3 0  99932 64097  53.1589 197.9026 0000624  81.2256 278.8817 15.34397972 75765

JSON: /api/v1/satellites/64097 · /tle

For live sub-satellite position, see the globe view (requires WebGL).

§ Visibility from observer

Set your observer location to see the next 7 days of passes ≥ 10°. The values pass through the URL so the page stays shareable.

No JS? Fill the form by hand. The geolocation button needs JavaScript.